Weather History for YBCS - November, 2014

Change the Weather History Date:

Friday, November 7, 2014

  Actual Average Record
Temperature  
Mean Temperature 80 °F -  
Max Temperature 91 °F 87 °F 91 °F (2014)
Min Temperature 68 °F 72 °F 68 °F (2006)
Cooling Degree Days 15    
Growing Degree Days 30 (Base 50)    
Moisture  
Dew Point 63 °F    
Average Humidity 60    
Maximum Humidity 88    
Minimum Humidity 11    
Precipitation  
Precipitation 0.00 in 0.16 in - ()
Sea Level Pressure  
Sea Level Pressure 29.95 in    
Wind  
Wind Speed 8 mph ()    
Max Wind Speed 17 mph    
Max Gust Speed 22 mph    
Visibility 6.7 miles    
Events      
Averages and records for this station are not official NWS values.
T = Trace of Precipitation, MM = Missing Value Source: Averaged Metar Reports

Daily Weather History Graph

Daily Weather History Graph

Search for Another Location

Airport or City:

Trip Planner

Search our weather history database for the weather conditions in past years. The results will help you decide how hot, cold, wet, or windy it might be!

Date:

Astronomy

Nov. 07, 2014 Rise Set
Actual Time 5:36 AM AEST 6:24 PM AEST
Civil Twilight 5:14 AM AEST 6:47 PM AEST
Nautical Twilight 4:47 AM AEST 7:14 PM AEST
Astronomical Twilight 4:20 AM AEST 7:41 PM AEST
Moon 6:44 PM AEST (11/7) 5:39 AM AEST (11/7)
Length of Visible Light 13h 33m
Length of Day
12h 47m
Full, 100% of the Moon is Illuminated
Nov 7
Full
Nov 15
Last Quarter
Nov 22
New
Nov 29
First Quarter
Dec 6
Full

Hourly Weather History & Observations

Time (AEST) Temp. Heat Index Dew Point Humidity Pressure Visibility Wind Dir Wind Speed Gust Speed Precip Events Conditions
12:00 AM 74 °F - 68 °F 77% 29.95 in - ESE 4.6 mph - -  
12:00 AM 73.4 °F - 68.0 °F 83% 29.95 in 6.2 mi ESE 4.6 mph - N/A   Mostly Cloudy
1:00 AM 73 °F - 68 °F 80% 29.94 in - SE 6.9 mph - -  
1:00 AM 73.4 °F - 68.0 °F 83% 29.92 in 6.2 mi SE 6.9 mph - N/A   Partly Cloudy
1:30 AM 73.4 °F - 68.0 °F 83% 29.92 in 6.2 mi SSE 6.9 mph - N/A   Partly Cloudy
2:00 AM 73.4 °F - 68.0 °F 83% 29.92 in 6.2 mi SSE 8.1 mph - N/A   Partly Cloudy
2:30 AM 71.6 °F - 68.0 °F 88% 29.92 in 6.2 mi SE 8.1 mph - N/A   Partly Cloudy
3:00 AM 72 °F - 67 °F 79% 29.92 in - SE 8.1 mph - -  
3:00 AM 71.6 °F - 66.2 °F 83% 29.92 in 6.2 mi SE 8.1 mph - N/A   Partly Cloudy
3:30 AM 69.8 °F - 66.2 °F 88% 29.92 in 6.2 mi SE 10.4 mph - N/A   Partly Cloudy
4:00 AM 71 °F - 66 °F 81% 29.93 in - SE 9.2 mph - -  
4:00 AM 71.6 °F - 66.2 °F 83% 29.92 in 6.2 mi SE 9.2 mph - N/A   Partly Cloudy
4:30 AM 69.8 °F - 66.2 °F 88% 29.92 in 6.2 mi SE 9.2 mph - N/A   Partly Cloudy
5:00 AM 69.8 °F - 66.2 °F 88% 29.95 in 6.2 mi SE 8.1 mph - N/A   Partly Cloudy
5:30 AM 73.4 °F - 64.4 °F 73% 29.95 in 6.2 mi South 4.6 mph - N/A   Partly Cloudy
6:00 AM 70 °F - 66 °F 82% 29.96 in - SE 12.7 mph - -  
6:00 AM 69.8 °F - 66.2 °F 88% 29.95 in 6.2 mi SE 12.7 mph - N/A   Partly Cloudy
6:30 AM 71.6 °F - 66.2 °F 83% 29.95 in 6.2 mi SE 10.4 mph - N/A   Partly Cloudy
7:00 AM 74 °F - 65 °F 67% 29.98 in - SE 12.7 mph - -  
7:00 AM 73.4 °F - 66.2 °F 78% 29.98 in 6.2 mi SE 12.7 mph - N/A   Partly Cloudy
7:30 AM 77.0 °F - 64.4 °F 65% 29.98 in 6.2 mi SE 10.4 mph - N/A   Partly Cloudy
8:00 AM 80.6 °F 82.3 °F 64.4 °F 58% 29.98 in 6.2 mi SSE 9.2 mph - N/A   Partly Cloudy
8:30 AM 80.6 °F 82.3 °F 64.4 °F 58% 29.98 in 6.2 mi SSE 9.2 mph - N/A   Partly Cloudy
9:00 AM 82 °F - 64 °F 44% 29.99 in 19 mi SSE 10.4 mph - -   Partly Cloudy
9:00 AM 82.4 °F 83.9 °F 64.4 °F 54% 29.98 in 6.2 mi SSE 10.4 mph - N/A   Partly Cloudy
9:30 AM 84.2 °F 85.0 °F 62.6 °F 48% 29.98 in 6.2 mi SSE 9.2 mph - N/A   Partly Cloudy
10:00 AM 84 °F - 62 °F 38% 29.99 in - ESE 10.4 mph - -  
10:00 AM 84.2 °F 85.0 °F 62.6 °F 48% 29.98 in 6.2 mi ESE 10.4 mph - N/A   Partly Cloudy
10:30 AM 86.0 °F 86.6 °F 62.6 °F 45% 29.98 in 6.2 mi SE 10.4 mph 21.9 mph N/A   Partly Cloudy
11:00 AM 86.0 °F 86.6 °F 62.6 °F 45% 29.95 in - ENE 9.2 mph - N/A   Clear
11:30 AM 89.6 °F 88.9 °F 59.0 °F 36% 29.95 in - ENE 12.7 mph - N/A   Clear
12:00 PM 86 °F - 63 °F 36% 29.95 in - ENE 17.3 mph - -  
12:00 PM 86.0 °F 86.6 °F 62.6 °F 45% 29.95 in 6.2 mi ENE 17.3 mph - N/A   Mostly Cloudy
12:30 PM 87.8 °F 88.5 °F 62.6 °F 43% 29.92 in 6.2 mi NE 16.1 mph - N/A   Mostly Cloudy
1:00 PM 87 °F - 64 °F 36% 29.94 in - NE 16.1 mph - -  
1:00 PM 87.8 °F 89.4 °F 64.4 °F 46% 29.92 in 6.2 mi NE 16.1 mph - N/A   Mostly Cloudy
1:30 PM 87.8 °F 89.4 °F 64.4 °F 46% 29.92 in 6.2 mi ENE 15.0 mph - N/A   Scattered Clouds
2:00 PM 87.8 °F 90.4 °F 66.2 °F 49% 29.92 in 6.2 mi NE 16.1 mph - N/A   Scattered Clouds
2:30 PM 89.6 °F - 50.0 °F 26% 29.89 in 6.2 mi NE 15.0 mph - N/A   Mostly Cloudy
3:00 PM 91 °F - 43 °F 11% 29.91 in 19 mi East 12.7 mph - -   Partly Cloudy
3:00 PM 91.4 °F - 42.8 °F 18% 29.89 in 6.2 mi East 12.7 mph - N/A   Mostly Cloudy
3:30 PM 91.4 °F - 44.6 °F 20% 29.89 in 6.2 mi SE 15.0 mph - N/A   Mostly Cloudy
4:00 PM 88 °F - 53 °F 21% 29.91 in - ENE 15.0 mph - -  
4:00 PM 87.8 °F 85.7 °F 53.6 °F 31% 29.89 in 6.2 mi ENE 15.0 mph - N/A   Mostly Cloudy
4:30 PM 86.0 °F 85.4 °F 59.0 °F 40% 29.92 in 6.2 mi NE 10.4 mph - N/A   Mostly Cloudy
5:00 PM 84.2 °F 85.0 °F 62.6 °F 48% 29.92 in 6.2 mi East 15.0 mph - N/A   Mostly Cloudy
5:30 PM 82.4 °F 83.9 °F 64.4 °F 54% 29.92 in 6.2 mi East 12.7 mph - N/A   Mostly Cloudy
6:00 PM 81 °F - 55 °F 31% 29.94 in - SSE 8.1 mph - -  
6:00 PM 80.6 °F 80.5 °F 55.4 °F 42% 29.95 in 6.2 mi SSE 8.1 mph - N/A   Mostly Cloudy
6:30 PM 78.8 °F - 66.2 °F 65% 29.95 in 6.2 mi WSW 6.9 mph - N/A   Mostly Cloudy
7:00 PM 78 °F - 65 °F 56% 29.97 in - SW 4.6 mph - -  
7:00 PM 78.8 °F - 66.2 °F 65% 29.95 in 6.2 mi SW 4.6 mph - N/A   Mostly Cloudy
7:30 PM 77.0 °F - 64.4 °F 65% 29.98 in 6.2 mi South 6.9 mph - N/A   Mostly Cloudy
8:00 PM 77.0 °F - 66.2 °F 69% 29.98 in 6.2 mi South 5.8 mph - N/A   Mostly Cloudy
8:30 PM 77.0 °F - 64.4 °F 65% 29.98 in 6.2 mi South 1.2 mph - N/A   Mostly Cloudy
9:00 PM 76 °F - 66 °F 64% 30.00 in - South 5.8 mph - -  
9:00 PM 75.2 °F - 66.2 °F 73% 30.01 in 6.2 mi South 5.8 mph - N/A   Mostly Cloudy
9:30 PM 75.2 °F - 66.2 °F 73% 30.01 in 6.2 mi South 8.1 mph - N/A   Mostly Cloudy
10:00 PM 75 °F - 63 °F 59% 30.03 in - South 6.9 mph - -  
10:00 PM 75.2 °F - 62.6 °F 65% 30.01 in 6.2 mi South 6.9 mph - N/A   Mostly Cloudy
10:30 PM 71.6 °F - 62.6 °F 73% 30.01 in 6.2 mi West 4.6 mph - N/A   Mostly Cloudy
11:00 PM 69.8 °F - 62.6 °F 78% 30.01 in 6.2 mi NNW 1.2 mph - N/A   Mostly Cloudy
11:30 PM 68.0 °F - 62.6 °F 83% 30.01 in 6.2 mi NW 4.6 mph - N/A   Mostly Cloudy